Location: Gälforsberget
(66.6500°N, 22.4167°E)
Time: 06:07:59
(UTC+00:00)

SL-19 R/B - Pass Details

Date: 11 April 2026
Orbit: 304 x 454 km, 99.4° (Epoch: 10 May)

Event Time Altitude Azimuth Distance (km) Brightness Sun altitude
Exits shadow 21:53:08 26° 111° (ESE) 669 4.5 -14.4°
Maximum altitude 21:54:11 41° 57° (ENE) 466 4.1 -14.5°
Drops below altitude 10° 21:56:38 10° 344° (NNW) 1,222 7.5 -14.5°
Enters shadow 22:50:07 -70° 158° (SSE) 12,405 11.1 -14.7°
